Date String (YYYY-MM-DD hh:mm:ss) UTC,Instrument flags,absolute air pressure of the measurement (hPa),sample flow rate (lpm),inlet stack bypass flow (lpm),air temperature of the measurement (°C),ambient temperature measured by the external sensor (°C),aerosol sample conditioner tube jacket temperature (°C),OPC LED temperature (°C),internal box temperature (°C),relative humidity of the measurement (%),span deviation,mass concentration of particles derived from Lorenz-Mie calculation of OPC scattering (μg/m³),mass concentration of particles derived from Lorenz-Mie calculation of OPC scattering (μg/m³),mass concentration of particles derived from Lorenz-Mie calculation of OPC scattering (μg/m³)
DateTimeUTC,F1_M11,P_M11,Q1_M11,Q2_M11,T1_M11,T2_M11,T3_M11,T4_M11,T5_M11,U1_M11,ZSPAN_M11,X0_M11,X2_M11,X1_M11
2023-10-19 02:00:00,SystemResetWarning,0833.2,5.01,000.00,028.4,027.1,000.0,036.8,030.2,14.8,0000.0,0018.87,0003.88,0002.31
2023-10-19 02:01:00,SystemResetWarning,0833.2,5.01,000.00,028.4,027.2,000.0,036.8,030.2,14.8,0000.0,0019.14,0003.89,0002.33
2023-10-19 02:02:00,SystemResetWarning,0833.2,4.99,000.00,028.4,027.2,000.0,036.8,030.2,14.8,0000.0,0019.47,0003.94,0002.34
2023-10-19 02:03:00,SystemResetWarning,0833.2,4.99,000.00,028.5,027.3,000.0,036.8,030.2,14.8,0000.0,0019.35,0003.95,0002.35
2023-10-19 02:04:00,SystemResetWarning,0833.2,5.00,000.00,028.5,027.3,000.0,036.9,030.3,14.8,0000.0,0020.06,0004.03,0002.37
2023-10-19 02:05:00,SystemResetWarning,0833.2,5.00,000.00,028.5,027.4,000.0,036.9,030.3,14.7,0000.0,0019.70,0004.06,0002.38
2023-10-19 02:06:00,SystemResetWarning,0833.2,5.00,000.00,028.6,027.4,000.0,036.9,030.3,14.7,0000.0,0019.54,0004.14,0002.41
2023-10-19 02:07:00,SystemResetWarning,0833.2,5.00,000.00,028.6,027.5,000.0,036.9,030.4,14.6,0000.0,0018.94,0004.16,0002.43
2023-10-19 02:08:00,SystemResetWarning,0833.2,5.01,000.00,028.6,027.5,000.0,036.9,030.4,14.6,0000.0,0018.14,0004.12,0002.44
2023-10-19 02:09:00,SystemResetWarning,0833.3,5.00,000.00,028.6,027.4,000.0,036.9,030.4,14.5,0000.0,0017.83,0004.10,0002.46
2023-10-19 02:10:00,SystemResetWarning,0833.3,4.99,000.00,028.6,025.8,000.0,036.9,030.3,14.5,0000.0,0017.87,0004.11,0002.48
2023-10-19 02:11:00,SystemResetWarning,0833.2,5.01,000.00,028.5,024.6,000.0,036.9,030.1,14.6,0000.0,0016.53,0004.13,0002.50
2023-10-19 02:12:00,SystemResetWarning,0833.3,5.01,000.00,028.4,024.5,000.0,036.8,029.9,14.7,0000.0,0015.74,0004.13,0002.49
2023-10-19 02:13:00,SystemResetWarning,0833.2,5.00,000.00,028.3,024.8,000.0,036.8,029.7,14.8,0000.0,0014.67,0004.05,0002.48
2023-10-19 02:14:00,SystemResetWarning,0833.2,5.00,000.00,028.3,025.1,000.0,036.8,029.8,14.8,0000.0,0014.42,0004.00,0002.47
2023-10-19 02:15:00,SystemResetWarning,0833.2,5.01,000.00,028.2,025.5,000.0,036.8,029.8,14.8,0000.0,0013.46,0003.95,0002.44
2023-10-19 02:16:00,SystemResetWarning,0833.2,5.00,000.00,028.2,025.8,000.0,036.8,029.8,14.8,0000.0,0014.24,0003.93,0002.43
2023-10-19 02:17:00,SystemResetWarning,0833.2,4.99,000.00,028.2,026.1,000.0,036.8,029.8,14.8,0000.0,0014.39,0003.86,0002.39
2023-10-19 02:18:00,SystemResetWarning,0833.3,5.00,000.00,028.2,026.3,000.0,036.8,029.9,14.8,0000.0,0014.06,0003.82,0002.38
2023-10-19 02:19:00,SystemResetWarning,0833.3,5.01,000.00,028.3,026.5,000.0,036.8,029.9,14.8,0000.0,0014.56,0003.84,0002.35
2023-10-19 02:20:00,SystemResetWarning,0833.3,5.00,000.00,028.3,026.6,000.0,036.8,030.0,14.8,0000.0,0014.83,0003.83,0002.33
2023-10-19 02:21:00,SystemResetWarning,0833.3,5.00,000.00,028.3,026.8,000.0,036.8,030.0,14.8,0000.0,0015.65,0003.83,0002.30
2023-10-19 02:22:00,SystemResetWarning,0833.3,5.01,000.00,028.3,026.9,000.0,036.8,030.0,14.8,0000.0,0015.55,0003.81,0002.28
2023-10-19 02:23:00,SystemResetWarning,0833.3,4.99,000.00,028.3,027.0,000.0,036.8,030.1,14.8,0000.0,0016.64,0003.80,0002.26
2023-10-19 02:24:00,SystemResetWarning,0833.4,4.99,000.00,028.4,027.0,000.0,036.8,030.1,14.7,0000.0,0016.91,0003.78,0002.23
2023-10-19 02:25:00,SystemResetWarning,0833.3,4.99,000.00,028.4,027.1,000.0,036.8,030.1,14.7,0000.0,0017.25,0003.80,0002.21
2023-10-19 02:26:00,SystemResetWarning,0833.3,5.00,000.00,028.4,027.2,000.0,036.8,030.1,14.7,0000.0,0018.24,0003.77,0002.20
2023-10-19 02:27:00,SystemResetWarning,0833.4,5.00,000.00,028.4,027.2,000.0,036.8,030.2,14.7,0000.0,0017.97,0003.74,0002.19
2023-10-19 02:28:00,SystemResetWarning,0833.3,5.00,000.00,028.5,027.3,000.0,036.8,030.2,14.7,0000.0,0017.68,0003.73,0002.19
2023-10-19 02:29:00,SystemResetWarning,0833.4,5.00,000.00,028.5,027.3,000.0,036.8,030.2,14.6,0000.0,0018.72,0003.80,0002.22
2023-10-19 02:30:00,SystemResetWarning,0833.4,5.00,000.00,028.5,027.3,000.0,036.9,030.3,14.6,0000.0,0018.84,0003.78,0002.22
2023-10-19 02:31:00,SystemResetWarning,0833.4,5.00,000.00,028.5,027.4,000.0,036.9,030.3,14.5,0000.0,0018.48,0003.74,0002.22
2023-10-19 02:32:00,SystemResetWarning,0833.4,5.00,000.00,028.6,027.4,000.0,036.9,030.3,14.5,0000.0,0017.06,0003.71,0002.22
2023-10-19 02:33:00,SystemResetWarning,0833.4,5.00,000.00,028.6,027.4,000.0,036.9,030.3,14.4,0000.0,0016.79,0003.68,0002.22
2023-10-19 02:34:00,SystemResetWarning,0833.4,5.00,000.00,028.6,027.5,000.0,036.9,030.4,14.4,0000.0,0015.96,0003.67,0002.22
2023-10-19 02:35:00,SystemResetWarning,0833.4,5.00,000.00,028.6,027.5,000.0,036.9,030.4,14.4,0000.0,0016.12,0003.71,0002.23
2023-10-19 02:36:00,SystemResetWarning,0833.4,5.00,000.00,028.7,027.5,000.0,037.0,030.4,14.4,0000.0,0015.65,0003.68,0002.25
2023-10-19 02:37:00,SystemResetWarning,0833.4,5.00,000.00,028.7,027.5,000.0,037.0,030.4,14.3,0000.0,0015.04,0003.66,0002.24
2023-10-19 02:38:00,SystemResetWarning,0833.4,4.99,000.00,028.7,027.2,000.0,037.0,030.4,14.4,0000.0,0014.85,0003.66,0002.24
2023-10-19 02:39:00,SystemResetWarning,0833.3,4.99,000.00,028.7,025.3,000.0,036.9,030.3,14.4,0000.0,0015.03,0003.69,0002.24
2023-10-19 02:40:00,SystemResetWarning,0833.3,5.01,000.00,028.6,024.4,000.0,036.9,030.1,14.4,0000.0,0014.19,0003.67,0002.24
2023-10-19 02:41:00,SystemResetWarning,0833.3,5.01,000.00,028.5,024.5,000.0,036.9,029.8,14.5,0000.0,0013.35,0003.62,0002.23
2023-10-19 02:42:00,SystemResetWarning,0833.2,5.00,000.00,028.4,024.8,000.0,036.9,029.8,14.6,0000.0,0013.15,0003.63,0002.24
2023-10-19 02:43:00,SystemResetWarning,0833.3,5.00,000.00,028.3,025.2,000.0,036.9,029.7,14.7,0000.0,0013.43,0003.61,0002.24
2023-10-19 02:44:00,SystemResetWarning,0833.2,5.00,000.00,028.3,025.5,000.0,036.9,029.8,14.6,0000.0,0013.66,0003.67,0002.24
2023-10-19 02:45:00,SystemResetWarning,0833.2,5.00,000.00,028.3,025.8,000.0,036.8,029.8,14.6,0000.0,0013.44,0003.68,0002.23
2023-10-19 02:46:00,SystemResetWarning,0833.3,5.00,000.00,028.3,026.1,000.0,036.8,029.8,14.7,0000.0,0012.80,0003.68,0002.23
2023-10-19 02:47:00,SystemResetWarning,0833.3,5.00,000.00,028.3,026.3,000.0,036.8,029.9,14.8,0000.0,0013.68,0003.73,0002.23
2023-10-19 02:48:00,SystemResetWarning,0833.3,4.99,000.00,028.3,026.5,000.0,036.8,029.9,14.8,0000.0,0014.59,0003.77,0002.26
2023-10-19 02:49:00,SystemResetWarning,0833.3,4.99,000.00,028.3,026.6,000.0,036.8,030.0,14.7,0000.0,0014.43,0003.75,0002.27
2023-10-19 02:50:00,SystemResetWarning,0833.4,4.99,000.00,028.3,026.7,000.0,036.8,030.0,14.7,0000.0,0015.29,0003.74,0002.27
2023-10-19 02:51:00,SystemResetWarning,0833.4,5.01,000.00,028.3,026.8,000.0,036.8,030.0,14.7,0000.0,0015.37,0003.70,0002.26
2023-10-19 02:52:00,SystemResetWarning,0833.4,5.00,000.00,028.4,026.9,000.0,036.8,030.1,14.7,0000.0,0015.55,0003.69,0002.25
2023-10-19 02:53:00,SystemResetWarning,0833.4,5.01,000.00,028.4,027.0,000.0,036.8,030.1,14.6,0000.0,0015.42,0003.69,0002.23
2023-10-19 02:54:00,SystemResetWarning,0833.4,5.01,000.00,028.4,027.1,000.0,036.8,030.1,14.6,0000.0,0015.20,0003.70,0002.21
2023-10-19 02:55:00,SystemResetWarning,0833.4,5.00,000.00,028.4,027.1,000.0,036.8,030.1,14.6,0000.0,0015.24,0003.67,0002.21
2023-10-19 02:56:00,SystemResetWarning,0833.5,5.01,000.00,028.4,027.2,000.0,036.8,030.2,14.6,0000.0,0016.80,0003.71,0002.23
2023-10-19 02:57:00,SystemResetWarning,0833.4,5.00,000.00,028.5,027.2,000.0,036.8,030.2,14.6,0000.0,0017.15,0003.68,0002.22
2023-10-19 02:58:00,SystemResetWarning,0833.4,5.00,000.00,028.5,027.3,000.0,036.8,030.2,14.6,0000.0,0016.76,0003.63,0002.21
2023-10-19 02:59:00,SystemResetWarning,0833.4,5.00,000.00,028.5,027.3,000.0,036.9,030.2,14.5,0000.0,0015.63,0003.59,0002.18
